This is the latest recevied weather packets stored in our database for station/object VE2CSM-13. If no packets are shown the sender has not sent any weather packets the latest 10 day(s).
| Time | Temp. | Humidity | Pressure | Rain* | Wind** | Luminosity | Snow |
|---|---|---|---|---|---|---|---|
| 1787911485 | 18.89° C | 97% | 1022.8 hPa | 0 mm | - | - | - |
| 1787907886 | 18.89° C | 97% | 1022.2 hPa | 0 mm | - | - | - |
| 1787904289 | 18.89° C | 97% | 1022.1 hPa | 0 mm | - | - | - |
| 1787902363 | 18.89° C | 96% | 1021.8 hPa | 0 mm | - | - | - |
| 1787899495 | 18.89° C | 96% | 1021.7 hPa | 0 mm | - | - | - |
| 1787898523 | 18.89° C | 96% | 1021.7 hPa | 0 mm | - | - | - |
| 1787898043 | 18.89° C | 96% | 1021.6 hPa | 0 mm | - | - | - |
| 1787897563 | 19.44° C | 96% | 1021.8 hPa | 0 mm | - | - | - |
| 1787897323 | 19.44° C | 96% | 1021.8 hPa | 0 mm | - | - | - |
| 1787897086 | 19.44° C | 96% | 1021.8 hPa | 0 mm | - | - | - |
| 1787896972 | 19.44° C | 96% | 1021.8 hPa | 0 mm | - | - | - |
| 1787871882 | 21.11° C | 93% | 1021.4 hPa | 0 mm | - | - | - |
| 1787864679 | 20.56° C | 89% | 1021 hPa | 0.76 mm | - | - | - |
| 1787861079 | 23.33° C | 86% | 1020.7 hPa | 0.76 mm | - | - | - |
| 1787857484 | 27.78° C | 59% | 1021.4 hPa | 0 mm | - | - | - |
| 1787853879 | 28.33° C | 52% | 1022 hPa | 0 mm | - | - | - |
| 1787850279 | 26.67° C | 55% | 1022.7 hPa | 0 mm | - | - | - |
| 1787846679 | 25.56° C | 61% | 1023.8 hPa | 0 mm | - | - | - |
| 1787843079 | 24.44° C | 65% | 1024.6 hPa | 0 mm | - | - | - |
| 1787839481 | 22.78° C | 69% | 1025.4 hPa | 0 mm | - | - | - |
| 1787835888 | 20° C | 77% | 1025.8 hPa | 0 mm | - | - | - |
| 1787832279 | 18.89° C | 85% | 1026.2 hPa | 0 mm | - | - | - |
| 1787828680 | 15.56° C | 97% | 1026 hPa | 0 mm | - | - | - |
| 1787825079 | 14.44° C | 97% | 1026 hPa | 0 mm | - | - | - |
| 1787821479 | 14.44° C | 97% | 1026.1 hPa | 0 mm | - | - | - |
* Rain latest hour (hover to see other rain measurements)
** Current wind speed in m/s (hover to see current wind gust speed)